[[{"header":{"parameterUnit":"m.s-1","parameterCategory":1,"la1":30.2991,"la2":30.254,"lo1":-89.0895,"lo2":-89.0444,"dy":0.0017,"dx":0.0017,"nx":28,"ny":28,"refTime":"2025-09-18T03:00:00:Z","depth":0,"parameterNumber":2,"parameterNumberName":"U-component_of_WINDS"},"data":[0,0,0,0,0,0,0,0,0,0,0,0,0,0,0,0,0,0,0,0,0,0,0,0,0,0,0,0,0,0,0,0,0,0,0,0,0,0,0,0,0,0,0,0,0,0,0,0,0,0,0,0,0,0,0,0,0,0,1.9771,1.9771,0,1.9825,1.9825,1.9826,1.9822,1.9822,1.9821,1.982,1.9872,1.9874,1.9876,0,0,0,0,0,0,0,0,0,0,0,0,0,1.9659,1.9661,1.977,1.9771,1.9772,1.9825,1.9825,1.9826,1.9822,1.9822,1.9821,1.982,1.9871,1.9873,1.9876,0,0,0,0,0,0,0,0,0,0,0,0,0,1.9709,1.9662,1.977,1.9777,1.9778,1.9825,1.9825,1.9826,1.9823,1.9822,1.982,1.9819,1.987,1.9873,1.9876,1.9919,0,0,1.9886,1.9887,0,0,0,0,0,0,0,0,1.9707,1.9714,1.9775,1.9776,1.9778,1.9816,1.9805,1.9857,1.9823,1.9805,1.982,1.9819,1.9854,1.9858,1.9871,1.9922,1.9924,1.9886,1.9888,1.9889,1.989,0,0,0,0,0,0,0,1.9703,1.9711,1.9792,1.9776,1.9777,1.9775,1.9781,1.9815,1.9835,1.9807,1.9807,1.9813,1.9854,1.9868,1.9872,1.9925,1.9886,1.9889,1.9891,1.9892,2.0011,2.0012,0,0,0,0,0,0,1.9699,1.9708,1.979,1.9793,1.9739,1.9778,1.9784,1.9805,1.9835,1.9839,1.9814,1.9813,1.9863,1.9868,1.9874,1.9924,1.9889,1.9892,1.9894,2.001,2.0011,2.0013,0,0,0,0,0,0,1.9696,1.9706,1.9788,1.9751,1.9761,1.9781,1.9804,1.9806,1.982,1.9841,1.9844,1.9825,1.9862,1.9869,1.9908,1.9926,1.9894,1.9897,2.0008,2.001,2.0012,2.0027,0,0,0,0,0,0,1.9693,1.9705,1.9723,1.9751,1.9763,1.9823,1.9805,1.9808,1.9826,1.9825,1.9851,1.9855,1.9862,1.9903,1.9911,1.993,1.9899,2.0007,2.0009,2.0011,2.0025,2.0029,2.0033,0,0,0,0,0,1.9689,1.9725,1.9724,1.9734,1.9786,1.9824,1.983,1.9839,1.9827,1.9844,1.9857,1.9854,1.9923,1.9907,1.9916,1.9936,2.0006,2.0008,2.0011,2.0023,2.0028,2.0032,0,0,0,0,0,0,1.9697,1.9729,1.9728,1.9774,1.9797,1.9823,1.9845,1.9844,1.9869,1.9867,1.9875,1.9881,1.9919,1.9932,1.9913,1.9978,1.9963,1.9967,1.9968,1.9974,1.9977,1.9973,1.9902,0,0,0,0,0,1.9705,1.9734,1.9759,1.9798,1.9809,1.9825,1.9842,1.9846,1.9869,1.9878,1.9894,1.9915,1.9941,1.9958,1.9984,2.0027,2.0031,2.0045,2.0049,2.0052,2.0055,2.0076,2.0082,2.0022,2.0022,2.0022,0,0,1.972,1.9741,1.9759,1.98,1.9817,1.9846,1.9833,1.9864,1.9884,1.9882,1.9919,1.9932,1.9955,1.9996,2.0014,2.0007,2.0073,2.0056,2.0058,2.006,2.008,2.0086,2.0091,2.0024,2.0024,2.0023,0,0,1.9761,1.9781,1.9814,1.9832,1.9859,1.987,1.9877,1.9904,1.9912,1.995,1.9948,1.9972,2.0018,2.0034,2.0048,2.0095,2.0091,2.0103,2.0123,2.0143,2.0148,2.0152,2.0166,2.0172,2.0107,2.0107,2.0107,0,1.9776,1.982,1.9831,1.9862,1.9879,1.9879,1.9911,1.9928,1.9961,1.9972,1.9964,2.002,2.0036,2.0079,2.0091,2.0103,2.011,2.0099,2.0147,2.0151,2.0155,2.0169,2.0174,2.0108,2.0108,2.0107,2.0107,0,1.9836,1.9866,1.9889,1.9923,1.9942,1.9974,1.9987,2.0005,2.0008,2.0019,2.0055,2.0075,2.0103,2.0114,2.0117,2.0157,2.0152,2.0145,2.013,2.0162,2.0175,2.018,2.0109,2.0109,2.0108,2.0108,0,0,1.9884,1.9922,1.993,1.9944,1.9974,1.9996,2.0027,2.0056,2.007,2.0093,2.0117,2.0155,2.0149,2.0165,2.017,2.0188,2.0221,2.0179,2.018,2.0184,2.0263,2.0266,2.0273,2.0219,2.022,2.0221,2.026,0,1.9927,1.9982,1.9991,2.0039,2.0066,2.0066,2.0092,2.0112,2.0122,2.0145,2.0156,2.0182,2.0174,2.0183,2.0201,2.0213,2.0236,2.021,2.0239,2.024,2.0232,2.028,2.0284,2.032,2.0266,2.0267,2.0267,0,1.9984,2.0009,2.0059,2.0084,2.0095,2.0119,2.0145,2.0167,2.0189,2.0195,2.0213,2.0215,2.0244,2.0228,2.0268,2.025,2.0262,2.027,2.0271,2.0273,2.0255,2.028,2.0332,2.0336,2.0276,2.0275,2.0274,0,2.0011,2.0058,2.0093,2.0105,2.0135,2.0151,2.0164,2.0185,2.0201,2.0223,2.0233,2.0258,2.0272,2.029,2.0298,2.0287,2.0336,2.0322,2.034,2.034,2.0349,2.0348,2.0401,2.0361,2.0361,2.036,2.036,0,2.0057,2.0087,2.0105,2.0127,2.016,2.017,2.0202,2.0214,2.0232,2.0254,2.0256,2.0277,2.0288,2.0309,2.0316,2.0346,2.0352,2.0357,2.0358,2.0355,2.0355,2.0362,2.0359,2.0362,2.0362,2.0361,2.0361,0,2.0093,2.0106,2.0145,2.017,2.0176,2.0199,2.022,2.024,2.025,2.0278,2.0285,2.0301,2.0326,2.0337,2.0368,2.0372,2.0406,2.0406,2.0399,2.0399,2.0416,2.0413,2.0474,2.0482,2.0438,2.0438,2.0439,0,2.012,2.0144,2.0171,2.0187,2.02,2.0225,2.0242,2.0252,2.0268,2.0294,2.031,2.0336,2.0357,2.0397,2.041,2.0434,2.0433,2.0453,2.0437,2.0433,2.0431,2.0429,2.043,2.0455,2.0456,2.0456,2.0456,0,2.0167,2.0172,2.0197,2.0223,2.0242,2.0263,2.0283,2.0296,2.0308,2.0327,2.0353,2.037,2.0401,2.0426,2.045,2.0461,2.046,2.0462,2.0467,2.0464,2.0458,2.0459,2.0405,2.046,2.0459,2.0459,2.0459,2.0459,2.0198,2.0218,2.024,2.0266,2.0282,2.0301,2.032,2.0333,2.0356,2.0383,2.0387,2.0415,2.0434,2.0466,2.0478,2.0499,2.0494,2.0502,2.0503,2.0504,2.0505,2.0456,2.0503,2.0503,2.0503,2.0503,2.0503,0,2.0243,2.0257,2.0281,2.0309,2.0329,2.0328,2.035,2.0366,2.0391,2.041,2.043,2.046,2.0483,2.0498,2.0521,2.0535,2.0535,2.0541,2.0539,2.0541,2.0509,2.0501,2.054,2.054,2.054,2.054,2.054,2.054,2.0269,2.0301,2.0309,2.0349,2.0362,2.039,2.0402,2.0419,2.0433,2.0466,2.0486,2.0496,2.0513,2.0537,2.0558,2.0561,2.0569,2.0575,2.0578,2.0547,2.0543,2.054,2.0532,2.0577,2.0577,2.0607,2.0608,2.0608]},{"header":{"parameterUnit":"m.s-1","parameterCategory":1,"la1":30.2991,"la2":30.254,"lo1":-89.0895,"lo2":-89.0444,"dy":0.0017,"dx":0.0017,"nx":28,"ny":28,"refTime":"2025-09-18T03:00:00:Z","depth":0,"parameterNumber":3,"parameterNumberName":"V-component_of_WINDS"},"data":[0,0,0,0,0,0,0,0,0,0,0,0,0,0,0,0,0,0,0,0,0,0,0,0,0,0,0,0,0,0,0,0,0,0,0,0,0,0,0,0,0,0,0,0,0,0,0,0,0,0,0,0,0,0,0,0,0,0,-0.0466,-0.0465,0,-0.046,-0.046,-0.046,-0.0487,-0.0487,-0.0488,-0.0489,-0.0483,-0.0482,-0.0481,0,0,0,0,0,0,0,0,0,0,0,0,0,-0.0499,-0.0498,-0.0466,-0.0465,-0.0465,-0.046,-0.046,-0.046,-0.0486,-0.0487,-0.0488,-0.0489,-0.0483,-0.0482,-0.0481,0,0,0,0,0,0,0,0,0,0,0,0,0,-0.0488,-0.0498,-0.0466,-0.0478,-0.0479,-0.046,-0.046,-0.046,-0.0486,-0.0487,-0.0488,-0.049,-0.0483,-0.0482,-0.0481,-0.045,0,0,-0.0477,-0.0476,0,0,0,0,0,0,0,0,-0.0488,-0.0487,-0.0476,-0.0477,-0.0478,-0.0475,-0.047,-0.0457,-0.0486,-0.0483,-0.0489,-0.049,-0.0479,-0.0478,-0.0475,-0.0449,-0.0449,-0.0476,-0.0476,-0.0475,-0.0475,0,0,0,0,0,0,0,-0.0489,-0.0487,-0.0463,-0.0476,-0.0477,-0.0484,-0.0484,-0.0467,-0.0475,-0.0484,-0.0486,-0.0485,-0.048,-0.0476,-0.0475,-0.0449,-0.0477,-0.0475,-0.0475,-0.0474,-0.04,-0.0399,0,0,0,0,0,0,-0.0488,-0.0487,-0.0464,-0.0463,-0.0486,-0.0482,-0.0482,-0.0475,-0.0475,-0.0476,-0.0484,-0.0486,-0.0478,-0.0476,-0.0475,-0.0439,-0.0475,-0.0474,-0.0473,-0.0401,-0.04,-0.0398,0,0,0,0,0,0,-0.0489,-0.0486,-0.0464,-0.0476,-0.0474,-0.0481,-0.0472,-0.0474,-0.047,-0.0475,-0.0477,-0.0478,-0.0478,-0.0477,-0.0456,-0.0439,-0.0473,-0.0472,-0.0402,-0.0401,-0.0399,-0.0368,0,0,0,0,0,0,-0.049,-0.0486,-0.0474,-0.0475,-0.0473,-0.0445,-0.0471,-0.0473,-0.0468,-0.0471,-0.047,-0.0471,-0.0479,-0.0458,-0.0455,-0.0438,-0.0471,-0.0404,-0.0402,-0.04,-0.037,-0.0365,-0.036,0,0,0,0,0,-0.0491,-0.0465,-0.0473,-0.047,-0.0458,-0.0444,-0.0442,-0.0452,-0.0467,-0.0455,-0.0458,-0.0471,-0.0442,-0.0456,-0.0452,-0.0435,-0.0405,-0.0402,-0.04,-0.0372,-0.0366,-0.0361,0,0,0,0,0,0,-0.046,-0.0465,-0.0474,-0.0448,-0.0446,-0.0448,-0.0434,-0.0445,-0.0438,-0.0441,-0.0453,-0.0453,-0.0431,-0.0431,-0.0446,-0.0406,-0.0426,-0.0423,-0.0406,-0.04,-0.0396,-0.0396,-0.047,0,0,0,0,0,-0.045,-0.0439,-0.0444,-0.042,-0.0418,-0.0426,-0.042,-0.0428,-0.0426,-0.0425,-0.0427,-0.0424,-0.0414,-0.0408,-0.0399,-0.0371,-0.0372,-0.0358,-0.0353,-0.0349,-0.0345,-0.0332,-0.0326,-0.039,-0.039,-0.039,0,0,-0.043,-0.0431,-0.0423,-0.0414,-0.0413,-0.04,-0.0425,-0.0411,-0.0402,-0.0423,-0.0404,-0.0405,-0.0403,-0.0379,-0.0369,-0.0379,-0.0328,-0.0345,-0.0342,-0.0341,-0.0328,-0.0322,-0.0317,-0.0388,-0.0388,-0.0388,0,0,-0.0386,-0.0386,-0.0366,-0.0365,-0.0364,-0.037,-0.0365,-0.0367,-0.0369,-0.0351,-0.0366,-0.0356,-0.0339,-0.0337,-0.0334,-0.0292,-0.0304,-0.0289,-0.0264,-0.025,-0.0245,-0.0241,-0.0226,-0.0221,-0.0286,-0.0286,-0.0286,0,-0.036,-0.0342,-0.0355,-0.034,-0.0336,-0.0356,-0.0337,-0.0335,-0.033,-0.0327,-0.0339,-0.0319,-0.0319,-0.0295,-0.0285,-0.0282,-0.0278,-0.0289,-0.0245,-0.0241,-0.0237,-0.0223,-0.0218,-0.0284,-0.0284,-0.0285,-0.0285,0,-0.0311,-0.0299,-0.0284,-0.028,-0.0274,-0.0257,-0.0268,-0.0261,-0.027,-0.0275,-0.0257,-0.0257,-0.025,-0.0245,-0.0253,-0.0223,-0.023,-0.0243,-0.0263,-0.0229,-0.0216,-0.0211,-0.0282,-0.0282,-0.0283,-0.0283,0,0,-0.0246,-0.0251,-0.0245,-0.0244,-0.0245,-0.0236,-0.0221,-0.0214,-0.0208,-0.0205,-0.0193,-0.0179,-0.0192,-0.0189,-0.0197,-0.0186,-0.0153,-0.0201,-0.0201,-0.0192,-0.0121,-0.011,-0.0104,-0.0162,-0.0161,-0.016,-0.0121,0,-0.0203,-0.0177,-0.0189,-0.0162,-0.0151,-0.0171,-0.0158,-0.0157,-0.0162,-0.0154,-0.0159,-0.0149,-0.0167,-0.0165,-0.0155,-0.0159,-0.0139,-0.0163,-0.0151,-0.015,-0.015,-0.0097,-0.0086,-0.0049,-0.0116,-0.0115,-0.0115,0,-0.0149,-0.0145,-0.0117,-0.0122,-0.0118,-0.0106,-0.0101,-0.0093,-0.0094,-0.0098,-0.0095,-0.0107,-0.0093,-0.0114,-0.0096,-0.0111,-0.0107,-0.0109,-0.0108,-0.0107,-0.013,-0.0094,-0.0037,-0.0031,-0.0107,-0.0108,-0.0108,0,-0.0104,-0.0092,-0.0074,-0.0073,-0.0078,-0.0069,-0.0071,-0.0072,-0.0068,-0.0065,-0.0062,-0.0057,-0.0054,-0.005,-0.006,-0.0075,-0.004,-0.0062,-0.0044,-0.0043,-0.0035,-0.0035,0.0025,-0.0033,-0.0033,-0.0033,-0.0033,0,-0.0055,-0.0037,-0.0054,-0.0043,-0.0024,-0.0039,-0.0019,-0.0023,-0.0025,-0.0015,-0.0032,-0.0023,-0.0038,-0.003,-0.0038,-0.0022,-0.002,-0.0024,-0.0026,-0.0022,-0.0021,-0.0019,-0.0021,-0.0031,-0.0032,-0.0032,-0.0032,0,-0.0001,-0.0012,0.0006,-0.0001,-0.0002,0.0012,0.0006,0.0016,0.0009,0.0021,0.0023,0.0013,0.0021,0.001,0.0017,0.0012,0.0034,0.0028,0.0034,0.0033,0.0051,0.005,0.0115,0.0122,0.006,0.0061,0.0061,0,0.0031,0.0044,0.0038,0.0043,0.0042,0.005,0.0054,0.0039,0.0044,0.0043,0.0053,0.0059,0.0064,0.0077,0.007,0.0075,0.0069,0.0091,0.007,0.0073,0.0069,0.0069,0.007,0.0096,0.0097,0.0098,0.0098,0,0.009,0.0083,0.0089,0.0092,0.0097,0.0099,0.01,0.0105,0.009,0.0095,0.0103,0.0106,0.0113,0.0119,0.0122,0.012,0.0107,0.0105,0.0109,0.0114,0.0117,0.0115,0.0047,0.0104,0.0103,0.0103,0.0102,0.0102,0.0134,0.0144,0.0141,0.0147,0.0146,0.0147,0.0155,0.0148,0.0154,0.0158,0.0149,0.0159,0.0156,0.0158,0.0157,0.0164,0.0155,0.0161,0.0163,0.0165,0.0168,0.0115,0.0165,0.0165,0.0164,0.0164,0.0164,0,0.0192,0.0188,0.0194,0.0195,0.02,0.0185,0.0185,0.019,0.0198,0.0197,0.0201,0.0209,0.0214,0.0207,0.0211,0.0218,0.0212,0.0219,0.0219,0.0219,0.0176,0.0172,0.0224,0.0224,0.0224,0.0224,0.0224,0.0224,0.0222,0.0238,0.0231,0.0246,0.0242,0.025,0.0251,0.0251,0.025,0.0259,0.0264,0.0258,0.0254,0.0257,0.0261,0.0259,0.0261,0.0271,0.0267,0.0228,0.0222,0.0216,0.0212,0.0272,0.0272,0.0308,0.0309,0.0309]}]]